User: anonymous   Login
Location: 相模原市立博物館
(35.5593°N, 139.3931°E)
Time: 14:12:49
(UTC+09:00)
Language:

DOVE 4 - Orbit

View from above orbital plane
View from above orbital plane
View from above satellite
View from above satellite

Ground track
Ground track

The orbit data is extracted from the following two-line orbital elements,

1 39430U 13066Q   22027.89047325  .00000429  00000-0  85237-4 0  9990
2 39430  97.8157 303.0970 0151113 127.5500 233.9550 14.59821695435786
Epoch (UTC): 27 January 2022 21:22:16
Eccentricity: 0.0151113
inclination: 97.8157°
perigee height: 587 km
apogee height: 800 km
right ascension of ascending node: 303.0970°
argument of perigee: 127.5500°
revolutions per day: 14.59821695
mean anomaly at epoch: 233.9550°
orbit number at epoch: 43578

The dashed part of the orbit path shows where the satellite is in the earth's shadow,  

DLR